Total_Precipitation_Accumulation
0.43 0.45 0.42 0.42 0.36 0.36 0.35 0.28 0.22 0.18 0.17 0.12 0.08 0.07 0.07 0.07 0.08 0.13 0.22 0.24 0.25 0.35 0.50 0.55 0.55 0.49 0.46 0.46 0.44 0.38 0.35 0.32 0.31 0.28 0.23 0.20 0.18 0.17 0.17 0.18 0.19 0.19 0.18
0.62 0.62 0.63 0.61 0.52 0.49 0.56 0.47 0.34 0.29 0.27 0.22 0.19 0.16 0.14 0.16 0.17 0.20 0.30 0.32 0.31 0.35 0.48 0.61 0.66 0.66 0.66 0.70 0.63 0.52 0.47 0.45 0.44 0.42 0.36 0.30 0.25 0.22 0.21 0.20 0.20 0.19 0.18
0.83 0.80 0.89 0.87 0.76 0.70 0.69 0.61 0.57 0.46 0.40 0.36 0.35 0.29 0.26 0.27 0.28 0.33 0.39 0.45 0.47 0.44 0.47 0.57 0.64 0.68 0.72 0.77 0.75 0.69 0.67 0.63 0.59 0.54 0.50 0.45 0.38 0.33 0.29 0.26 0.26 0.24 0.22
1.07 1.13 1.13 1.10 1.02 0.96 0.93 0.91 0.80 0.70 0.63 0.59 0.54 0.45 0.38 0.42 0.42 0.46 0.47 0.52 0.60 0.57 0.53 0.51 0.55 0.64 0.70 0.77 0.80 0.83 0.83 0.80 0.74 0.69 0.65 0.60 0.56 0.51 0.45 0.38 0.34 0.32 0.30
1.47 1.53 1.62 1.51 1.37 1.30 1.22 1.10 1.05 0.94 0.91 0.83 0.66 0.57 0.46 0.45 0.54 0.55 0.52 0.52 0.58 0.59 0.57 0.52 0.54 0.66 0.70 0.75 0.77 0.82 0.89 0.89 0.86 0.81 0.76 0.72 0.70 0.66 0.59 0.52 0.46 0.42 0.38
2.20 2.12 1.99 1.85 1.70 1.64 1.56 1.42 1.30 1.13 1.01 0.90 0.69 0.55 0.44 0.39 0.43 0.49 0.50 0.50 0.54 0.56 0.58 0.57 0.60 0.59 0.62 0.68 0.72 0.76 0.80 0.88 0.94 0.92 0.86 0.85 0.85 0.81 0.75 0.69 0.63 0.58 0.53
2.83 2.68 2.52 2.32 2.10 1.91 1.74 1.51 1.34 1.18 1.01 0.86 0.76 0.65 0.50 0.37 0.37 0.42 0.41 0.45 0.46 0.43 0.43 0.47 0.52 0.51 0.50 0.57 0.61 0.65 0.68 0.80 0.92 0.95 0.96 0.98 0.96 0.91 0.86 0.80 0.74 0.69 0.64
3.43 3.26 3.04 2.73 2.42 2.17 1.88 1.58 1.31 1.14 0.98 0.84 0.80 0.81 0.67 0.51 0.40 0.32 0.31 0.30 0.28 0.26 0.26 0.28 0.30 0.32 0.35 0.39 0.41 0.48 0.57 0.63 0.71 0.81 0.90 0.95 0.98 0.98 0.96 0.92 0.88 0.84 0.82
3.63 3.32 3.05 2.82 2.50 2.12 1.79 1.50 1.22 1.07 0.92 0.77 0.67 0.70 0.69 0.61 0.48 0.35 0.26 0.20 0.19 0.19 0.19 0.19 0.22 0.24 0.23 0.24 0.26 0.33 0.43 0.47 0.53 0.61 0.72 0.84 0.88 0.89 0.91 0.94 1.00 1.01 0.99
3.44 3.08 2.79 2.48 2.16 1.83 1.54 1.26 0.98 0.80 0.68 0.57 0.47 0.41 0.40 0.39 0.43 0.37 0.25 0.18 0.17 0.17 0.16 0.16 0.18 0.21 0.23 0.24 0.28 0.32 0.36 0.40 0.46 0.50 0.56 0.67 0.74 0.75 0.77 0.83 0.92 1.00 1.06
2.81 2.48 2.17 1.88 1.61 1.34 1.09 0.84 0.67 0.55 0.48 0.42 0.38 0.35 0.34 0.31 0.32 0.33 0.27 0.19 0.16 0.15 0.14 0.14 0.15 0.18 0.19 0.21 0.24 0.32 0.37 0.37 0.40 0.44 0.47 0.49 0.54 0.60 0.67 0.74 0.80 0.88 0.97
2.07 1.84 1.59 1.36 1.15 0.93 0.76 0.62 0.51 0.44 0.41 0.38 0.34 0.30 0.29 0.28 0.27 0.28 0.28 0.21 0.16 0.14 0.12 0.12 0.14 0.15 0.17 0.20 0.27 0.42 0.40 0.40 0.39 0.38 0.38 0.38 0.39 0.43 0.50 0.59 0.68 0.79 0.90
1.46 1.24 1.03 0.88 0.73 0.60 0.52 0.45 0.40 0.35 0.31 0.28 0.25 0.23 0.21 0.20 0.18 0.18 0.19 0.18 0.16 0.13 0.12 0.11 0.10 0.11 0.13 0.16 0.22 0.33 0.34 0.36 0.36 0.34 0.33 0.32 0.32 0.33 0.37 0.41 0.49 0.60 0.72
0.84 0.70 0.60 0.53 0.47 0.41 0.36 0.32 0.28 0.25 0.21 0.18 0.16 0.15 0.13 0.12 0.13 0.15 0.17 0.20 0.21 0.18 0.14 0.13 0.12 0.11 0.11 0.13 0.20 0.26 0.28 0.30 0.29 0.27 0.24 0.22 0.21 0.21 0.24 0.28 0.32 0.38 0.46
0.57 0.48 0.41 0.37 0.33 0.30 0.26 0.22 0.19 0.16 0.15 0.14 0.14 0.14 0.13 0.12 0.11 0.11 0.12 0.16 0.24 0.26 0.19 0.14 0.13 0.12 0.12 0.13 0.18 0.21 0.25 0.27 0.26 0.24 0.21 0.18 0.17 0.17 0.18 0.20 0.22 0.24 0.27
0.38 0.33 0.27 0.23 0.20 0.17 0.15 0.14 0.13 0.12 0.12 0.12 0.13 0.13 0.14 0.13 0.12 0.12 0.13 0.16 0.22 0.29 0.26 0.16 0.13 0.12 0.13 0.13 0.15 0.19 0.22 0.21 0.20 0.19 0.17 0.15 0.13 0.13 0.14 0.15 0.17 0.19 0.22
0.21 0.19 0.17 0.15 0.14 0.13 0.13 0.13 0.14 0.14 0.14 0.14 0.14 0.14 0.15 0.15 0.15 0.14 0.14 0.15 0.15 0.20 0.26 0.17 0.11 0.11 0.14 0.18 0.20 0.23 0.22 0.20 0.18 0.18 0.17 0.17 0.14 0.12 0.12 0.14 0.16 0.17 0.18
0.14 0.13 0.12 0.12 0.12 0.12 0.12 0.13 0.13 0.13 0.14 0.14 0.13 0.13 0.13 0.13 0.15 0.14 0.14 0.13 0.15 0.20 0.29 0.27 0.18 0.13 0.14 0.16 0.20 0.22 0.16 0.14 0.16 0.18 0.17 0.15 0.14 0.14 0.13 0.12 0.12 0.12 0.12
0.12 0.10 0.09 0.08 0.08 0.08 0.08 0.09 0.09 0.10 0.10 0.10 0.10 0.09 0.09 0.10 0.11 0.11 0.13 0.14 0.16 0.18 0.26 0.29 0.20 0.16 0.13 0.12 0.19 0.22 0.22 0.27 0.16 0.11 0.11 0.10 0.11 0.11 0.11 0.10 0.09 0.08 0.05
0.08 0.06 0.05 0.05 0.05 0.05 0.05 0.05 0.04 0.04 0.04 0.04 0.04 0.05 0.06 0.07 0.11 0.14 0.14 0.16 0.20 0.23 0.24 0.26 0.22 0.17 0.15 0.16 0.28 0.37 0.33 0.29 0.22 0.12 0.12 0.10 0.10 0.09 0.10 0.14 0.11 0.09 0.08
0.05 0.04 0.04 0.03 0.03 0.02 0.02 0.01 0.01 0.01 0.02 0.03 0.03 0.04 0.05 0.07 0.13 0.15 0.16 0.19 0.24 0.28 0.29 0.32 0.30 0.25 0.22 0.29 0.39 0.41 0.37 0.28 0.22 0.18 0.21 0.18 0.23 0.37 0.56 0.62 0.41 0.20 0.13
0.06 0.05 0.04 0.02 0.02 0.01 0.00 0.00 0.00 0.01 0.02 0.04 0.06 0.06 0.05 0.05 0.07 0.09 0.11 0.15 0.22 0.29 0.35 0.40 0.38 0.35 0.31 0.39 0.48 0.49 0.50 0.45 0.35 0.24 0.27 0.24 0.34 0.69 1.08 1.29 0.90 0.40 0.26
0.07 0.05 0.04 0.03 0.04 0.02 0.00 0.00 0.00 0.01 0.05 0.08 0.10 0.11 0.08 0.07 0.12 0.15 0.12 0.10 0.14 0.21 0.34 0.48 0.51 0.44 0.43 0.49 0.59 0.60 0.56 0.54 0.46 0.35 0.41 0.40 0.50 0.81 0.94 1.05 1.01 0.64 0.49
0.07 0.07 0.06 0.06 0.07 0.03 0.00 0.00 0.00 0.02 0.06 0.09 0.10 0.11 0.15 0.19 0.15 0.10 0.08 0.12 0.23 0.35 0.40 0.43 0.50 0.47 0.46 0.50 0.61 0.63 0.58 0.53 0.47 0.45 0.52 0.55 0.58 0.74 0.77 1.03 1.24 1.10 0.92
0.08 0.07 0.06 0.08 0.11 0.08 0.01 0.00 0.00 0.03 0.06 0.07 0.07 0.09 0.12 0.17 0.13 0.11 0.12 0.21 0.30 0.40 0.34 0.42 0.49 0.55 0.60 0.60 0.55 0.55 0.65 0.68 0.63 0.49 0.51 0.57 0.65 0.74 0.86 1.17 1.28 1.29 1.21
0.09 0.08 0.08 0.09 0.12 0.12 0.02 0.00 0.01 0.04 0.07 0.08 0.11 0.16 0.13 0.10 0.11 0.12 0.13 0.24 0.36 0.41 0.52 0.70 0.83 0.89 0.84 0.76 0.63 0.62 0.74 0.79 0.79 0.70 0.55 0.58 0.67 0.83 1.08 1.29 1.28 1.20 1.19